Fremont, MI

8:05 AM EDT on August 22, 2019 (GMT -0400)
Fremont

Weather History for KFFX - May, 2019

Change the Weather History Date:

Monday, May 13, 2019

  Actual Average (KMKG) Record (KMKG)
Temperature  
Mean Temperature 53 °F -  
Max Temperature 61 °F 64 °F 84 °F (1982)
Min Temperature 44 °F 43 °F 25 °F (1996)
Degree Days  
Heating Degree Days 12    
Growing Degree Days 3 (Base 50)    
Moisture  
Dew Point 36 °F    
Average Humidity 57    
Maximum Humidity 88    
Minimum Humidity 34    
Precipitation  
Precipitation 0.00 in - - ()
Sea Level Pressure  
Sea Level Pressure 29.88 in    
Wind  
Wind Speed 5 mph ()    
Max Wind Speed 13 mph    
Max Gust Speed 21 mph    
Visibility 10.0 miles    
Events Rain    
Averages and records for this station are not official NWS values.
T = Trace of Precipitation, MM = Missing Value Source: Averaged Metar Reports

Daily Weather History Graph

Daily Weather History Graph

Search for Another Location

Airport or City:

Astronomy

May. 13, 2019 Rise Set
Actual Time 6:21 AM EDT 8:59 PM EDT
Civil Twilight 5:49 AM EDT 9:32 PM EDT
Nautical Twilight 5:08 AM EDT 10:13 PM EDT
Astronomical Twilight 4:21 AM EDT 11:00 PM EDT
Moon 2:57 PM EDT (5/13) 3:53 AM EDT (5/13)
Length of Visible Light 15h 42m
Length of Day
14h 37m
Waxing Gibbous, 68% of the Moon is Illuminated
May 13
Waxing Gibbous
May 18
Full
May 26
Last Quarter
Jun 3
New
Jun 10
First Quarter

Hourly Weather History & Observations

Time (EDT) Temp. Windchill Dew Point Humidity Pressure Visibility Wind Dir Wind Speed Gust Speed Precip Events Conditions
12:16 AM 49.1 °F - 38.7 °F 67% 29.83 in 10.0 mi NE 5.8 mph - N/A   Overcast
12:35 AM 49.1 °F - 38.5 °F 67% 29.84 in 10.0 mi ENE 5.8 mph - N/A   Overcast
12:55 AM 48.7 °F - 38.7 °F 68% 29.84 in 10.0 mi NE 3.5 mph - N/A   Overcast
1:15 AM 48.6 °F - 38.8 °F 69% 29.83 in 10.0 mi Calm Calm - N/A   Overcast
1:36 AM 48.6 °F - 38.5 °F 68% 29.83 in 10.0 mi NE 3.5 mph - N/A   Overcast
1:55 AM 48.4 °F - 38.5 °F 69% 29.83 in 10.0 mi NNE 3.5 mph - N/A   Overcast
2:16 AM 47.5 °F - 40.3 °F 76% 29.83 in 10.0 mi NNW 3.5 mph - N/A   Overcast
2:36 AM 47.7 °F - 39.4 °F 73% 29.83 in 10.0 mi NNE 3.5 mph - N/A   Drizzle
2:55 AM 46.6 °F - 41.4 °F 82% 29.83 in 10.0 mi NNW 3.5 mph - N/A   Light Drizzle
3:15 AM 46.4 °F - 41.5 °F 83% 29.82 in 10.0 mi Calm Calm - N/A   Overcast
3:36 AM 46.0 °F 44.8 °F 42.8 °F 88% 29.82 in 10.0 mi NNW 3.5 mph - N/A   Overcast
3:55 AM 46.0 °F - 42.4 °F 87% 29.82 in 10.0 mi Calm Calm - N/A   Overcast
4:15 AM 46.0 °F 44.8 °F 42.3 °F 87% 29.82 in 10.0 mi North 3.5 mph - N/A   Overcast
4:36 AM 46.4 °F 45.2 °F 40.5 °F 80% 29.82 in 10.0 mi North 3.5 mph - N/A   Light Drizzle
4:55 AM 46.4 °F 45.2 °F 40.1 °F 79% 29.82 in 10.0 mi North 3.5 mph - N/A Rain Light Rain
5:15 AM 46.4 °F 45.2 °F 40.3 °F 79% 29.83 in 10.0 mi North 3.5 mph - N/A   Overcast
5:36 AM 46.4 °F 44.3 °F 39.7 °F 78% 29.83 in 10.0 mi North 4.6 mph - N/A   Overcast
5:55 AM 46.4 °F 43.5 °F 39.4 °F 77% 29.83 in 10.0 mi North 5.8 mph - N/A   Overcast
6:15 AM 45.9 °F 43.6 °F 39.4 °F 78% 29.83 in 10.0 mi North 4.6 mph - N/A   Overcast
6:36 AM 45.7 °F 43.4 °F 38.8 °F 77% 29.83 in 10.0 mi North 4.6 mph - N/A   Overcast
6:56 AM 45.5 °F 42.5 °F 39.2 °F 79% 29.84 in 10.0 mi North 5.8 mph - N/A   Overcast
7:16 AM 45.7 °F 43.4 °F 39.2 °F 78% 29.84 in 10.0 mi North 4.6 mph - N/A   Overcast
7:35 AM 46.0 °F 43.9 °F 39.4 °F 78% 29.85 in 10.0 mi North 4.6 mph - N/A   Mostly Cloudy
7:56 AM 46.8 °F - 39.0 °F 74% 29.86 in 10.0 mi NNE 4.6 mph - N/A   Mostly Cloudy
8:16 AM 47.5 °F - 39.2 °F 73% 29.86 in 10.0 mi North 5.8 mph - N/A   Mostly Cloudy
8:35 AM 48.4 °F - 39.4 °F 71% 29.86 in 10.0 mi North 9.2 mph - N/A   Mostly Cloudy
8:56 AM 48.9 °F - 39.7 °F 71% 29.87 in 10.0 mi North 5.8 mph - N/A   Overcast
9:16 AM 49.6 °F - 39.4 °F 68% 29.87 in 10.0 mi NNE 6.9 mph - N/A   Overcast
9:35 AM 51.1 °F - 39.4 °F 64% 29.88 in 10.0 mi NNE 8.1 mph - N/A   Overcast
9:55 AM 52.5 °F - 38.8 °F 60% 29.88 in 10.0 mi NNE 9.2 mph 18.4 mph N/A   Overcast
10:15 AM 54.5 °F - 37.2 °F 52% 29.88 in 10.0 mi NNE 12.7 mph 20.7 mph N/A   Overcast
10:36 AM 54.7 °F - 36.1 °F 50% 29.88 in 10.0 mi ENE 6.9 mph - N/A   Overcast
10:55 AM 56.8 °F - 35.4 °F 45% 29.87 in 10.0 mi NNE 10.4 mph 16.1 mph N/A   Overcast
11:15 AM 55.8 °F - 33.8 °F 44% 29.88 in 10.0 mi NE 9.2 mph 18.4 mph N/A   Mostly Cloudy
11:36 AM 57.2 °F - 34.0 °F 42% 29.88 in 10.0 mi ENE 11.5 mph 16.1 mph N/A   Scattered Clouds
11:56 AM 58.3 °F - 33.6 °F 39% 29.88 in 10.0 mi ENE 10.4 mph 17.3 mph N/A   Scattered Clouds
12:15 PM 56.5 °F - 33.3 °F 42% 29.88 in 10.0 mi NE 6.9 mph - N/A   Mostly Cloudy
12:36 PM 57.2 °F - 33.4 °F 41% 29.88 in 10.0 mi North 8.1 mph - N/A   Overcast
12:55 PM 57.2 °F - 33.3 °F 40% 29.88 in 10.0 mi North 10.4 mph - N/A   Overcast
1:16 PM 57.2 °F - 32.9 °F 40% 29.88 in 10.0 mi NNE 5.8 mph - N/A   Overcast
1:35 PM 57.4 °F - 32.2 °F 39% 29.88 in 10.0 mi ENE 6.9 mph - N/A   Overcast
1:56 PM 57.7 °F - 32.5 °F 39% 29.88 in 10.0 mi NNE 5.8 mph - N/A   Overcast
2:16 PM 57.6 °F - 32.2 °F 38% 29.88 in 10.0 mi NE 3.5 mph - N/A   Overcast
2:35 PM 58.1 °F - 33.1 °F 39% 29.89 in 10.0 mi ENE 4.6 mph - N/A   Overcast
2:56 PM 58.6 °F - 32.2 °F 37% 29.89 in 10.0 mi North 5.8 mph - N/A   Overcast
3:16 PM 58.5 °F - 31.8 °F 37% 29.88 in 10.0 mi NE 3.5 mph - N/A   Overcast
3:35 PM 59.4 °F - 32.5 °F 36% 29.88 in 10.0 mi NNW 5.8 mph - N/A   Overcast
3:55 PM 59.4 °F - 31.3 °F 35% 29.88 in 10.0 mi Calm Calm - N/A   Overcast
4:15 PM 61.7 °F - 32.7 °F 34% 29.88 in 10.0 mi NNW 6.9 mph - N/A   Mostly Cloudy
4:36 PM 59.2 °F - 31.8 °F 36% 29.88 in 10.0 mi North 3.5 mph - N/A   Overcast
4:55 PM 59.5 °F - 31.5 °F 35% 29.88 in 10.0 mi North 8.1 mph - N/A   Overcast
5:15 PM 60.1 °F - 32.7 °F 36% 29.88 in 10.0 mi NNW 8.1 mph - N/A   Overcast
5:36 PM 59.5 °F - 32.7 °F 36% 29.89 in 10.0 mi NNW 6.9 mph - N/A   Overcast
5:56 PM 59.5 °F - 33.1 °F 37% 29.89 in 10.0 mi NW 4.6 mph - N/A   Overcast
6:15 PM 61.3 °F - 35.6 °F 38% 29.90 in 10.0 mi North 6.9 mph - N/A   Overcast
6:36 PM 59.0 °F - 34.5 °F 40% 29.91 in 10.0 mi NNW 9.2 mph - N/A   Overcast
6:56 PM 58.3 °F - 35.1 °F 42% 29.91 in 10.0 mi NW 10.4 mph - N/A   Overcast
7:16 PM 58.5 °F - 32.9 °F 38% 29.92 in 10.0 mi WNW 12.7 mph - N/A   Overcast
7:35 PM 59.5 °F - 32.9 °F 37% 29.92 in 10.0 mi WNW 10.4 mph - N/A   Overcast
7:55 PM 59.0 °F - 33.3 °F 38% 29.92 in 10.0 mi WNW 8.1 mph - N/A   Mostly Cloudy
8:16 PM 57.4 °F - 33.4 °F 40% 29.92 in 10.0 mi WNW 6.9 mph - N/A   Scattered Clouds
8:35 PM 55.8 °F - 32.9 °F 42% 29.93 in 10.0 mi WNW 8.1 mph - N/A   Clear
8:55 PM 52.9 °F - 34.3 °F 49% 29.93 in 10.0 mi WNW 6.9 mph - N/A   Clear
9:16 PM 50.7 °F - 34.3 °F 53% 29.93 in 10.0 mi WNW 5.8 mph - N/A   Clear
9:36 PM 48.6 °F - 34.9 °F 59% 29.94 in 10.0 mi WNW 4.6 mph - N/A   Clear
9:56 PM 47.7 °F - 34.7 °F 61% 29.95 in 10.0 mi WNW 5.8 mph - N/A   Clear
10:16 PM 46.6 °F - 34.5 °F 63% 29.95 in 10.0 mi WNW 3.5 mph - N/A   Clear
10:35 PM 46.9 °F - 33.3 °F 59% 29.95 in 10.0 mi WNW 3.5 mph - N/A   Clear
10:55 PM 46.4 °F - 33.3 °F 60% 29.96 in 10.0 mi Calm Calm - N/A   Clear
11:16 PM 46.4 °F 45.2 °F 32.2 °F 58% 29.96 in 10.0 mi WNW 3.5 mph - N/A   Clear
11:35 PM 45.7 °F 44.4 °F 32.2 °F 59% 29.96 in 10.0 mi West 3.5 mph - N/A   Clear
11:55 PM 44.4 °F - 32.9 °F 64% 29.97 in 10.0 mi Calm Calm - N/A   Clear